Date String (YYYY-MM-DD hh:mm:ss) UTC,Instrument flags,Ambient pressure (hPa),Sample flow (lpm),Bypass flow (lpm),Sample temperature (°C),Ambient temperature (°C),ASC tube jacket temperature (°C),LED temperature (°C),Box temperature (°C),Sample RH (%),Span deviation,Mass concentration (μg/m³),Mass concentration (μg/m³),Mass concentration (μg/m³)
DateTimeUTC,F1_M11,P_M11,Q1_M11,Q2_M11,T1_M11,T2_M11,T3_M11,T4_M11,T5_M11,U1_M11,ZSPAN_M11,X0_M11,X2_M11,X1_M11
2021-11-22 03:00:00,,0832.6,5.00,0.00,26.5,25.5,00.0,35.5,28.2,08.7,0000.0,0010.45,0003.50,0003.11
2021-11-22 03:01:00,,0832.7,5.00,0.00,26.5,25.5,00.0,35.5,28.2,08.7,0000.0,0010.93,0003.53,0003.14
2021-11-22 03:02:00,,0832.7,5.01,0.00,26.5,25.6,00.0,35.5,28.2,08.7,0000.0,0010.80,0003.55,0003.16
2021-11-22 03:03:00,,0832.7,5.01,0.00,26.5,25.6,00.0,35.5,28.2,08.7,0000.0,0011.21,0003.56,0003.17
2021-11-22 03:04:00,,0832.7,5.00,0.00,26.5,25.6,00.0,35.5,28.2,08.6,0000.0,0011.35,0003.61,0003.17
2021-11-22 03:05:00,,0832.7,4.99,0.00,26.5,25.5,00.0,35.5,28.2,08.7,0000.0,0011.37,0003.63,0003.19
2021-11-22 03:06:00,,0832.7,5.01,0.00,26.5,25.5,00.0,35.5,28.2,08.7,0000.0,0011.64,0003.67,0003.21
2021-11-22 03:07:00,,0832.7,5.01,0.00,26.4,25.5,00.0,35.5,28.1,08.7,0000.0,0011.14,0003.67,0003.22
2021-11-22 03:08:00,,0832.7,5.00,0.00,26.4,25.5,00.0,35.5,28.1,08.8,0000.0,0011.12,0003.68,0003.24
2021-11-22 03:09:00,,0832.7,4.99,0.00,26.4,25.5,00.0,35.5,28.1,08.8,0000.0,0010.64,0003.69,0003.26
2021-11-22 03:10:00,,0832.6,5.01,0.00,26.4,25.5,00.0,35.5,28.2,08.8,0000.0,0009.93,0003.72,0003.27
2021-11-22 03:11:00,,0832.6,5.00,0.00,26.4,25.5,00.0,35.5,28.1,08.8,0000.0,0010.10,0003.76,0003.29
2021-11-22 03:12:00,,0832.6,5.00,0.00,26.4,25.5,00.0,35.5,28.1,08.8,0000.0,0009.51,0003.76,0003.30
2021-11-22 03:13:00,,0832.6,5.00,0.00,26.4,25.5,00.0,35.5,28.1,08.9,0000.0,0008.58,0003.79,0003.32
2021-11-22 03:14:00,,0832.6,5.00,0.00,26.4,25.5,00.0,35.5,28.1,08.8,0000.0,0008.08,0003.80,0003.34
2021-11-22 03:15:00,,0832.6,5.01,0.00,26.4,25.5,00.0,35.4,28.1,08.8,0000.0,0008.97,0003.80,0003.35
2021-11-22 03:16:00,,0832.6,5.01,0.00,26.4,25.4,00.0,35.4,28.1,08.8,0000.0,0009.20,0003.82,0003.36
2021-11-22 03:17:00,,0832.6,4.99,0.00,26.4,25.4,00.0,35.4,28.0,08.8,0000.0,0009.06,0003.81,0003.36
2021-11-22 03:18:00,,0832.6,5.01,0.00,26.4,25.4,00.0,35.4,28.1,08.8,0000.0,0009.14,0003.80,0003.35
2021-11-22 03:19:00,,0832.7,5.00,0.00,26.3,25.4,00.0,35.4,28.1,08.8,0000.0,0009.85,0003.79,0003.36
2021-11-22 03:20:00,,0832.6,4.99,0.00,26.3,25.4,00.0,35.4,28.1,08.8,0000.0,0009.90,0003.80,0003.36
2021-11-22 03:21:00,,0832.6,5.00,0.00,26.4,25.4,00.0,35.4,28.1,08.8,0000.0,0010.00,0003.82,0003.36
2021-11-22 03:22:00,,0832.6,5.00,0.00,26.3,25.4,00.0,35.4,28.1,08.8,0000.0,0010.01,0003.79,0003.35
2021-11-22 03:23:00,,0832.6,5.00,0.00,26.3,25.4,00.0,35.4,28.1,08.9,0000.0,0009.99,0003.80,0003.35
2021-11-22 03:24:00,,0832.6,4.99,0.00,26.3,25.4,00.0,35.4,28.1,08.9,0000.0,0009.98,0003.79,0003.35
2021-11-22 03:25:00,,0832.6,5.00,0.00,26.3,25.4,00.0,35.4,28.0,08.9,0000.0,0009.98,0003.80,0003.35
2021-11-22 03:26:00,,0832.6,4.99,0.00,26.3,25.4,00.0,35.4,28.1,08.8,0000.0,0009.19,0003.80,0003.36
2021-11-22 03:27:00,,0832.6,5.02,0.00,26.3,25.4,00.0,35.4,28.1,08.9,0000.0,0008.90,0003.82,0003.36
2021-11-22 03:28:00,,0832.6,5.00,0.00,26.3,25.4,00.0,35.4,28.0,08.9,0000.0,0008.82,0003.85,0003.36
2021-11-22 03:29:00,,0832.6,4.99,0.00,26.3,25.4,00.0,35.4,28.0,08.8,0000.0,0008.93,0003.87,0003.37
2021-11-22 03:30:00,,0832.6,5.00,0.00,26.3,25.3,00.0,35.3,28.0,08.8,0000.0,0008.44,0003.89,0003.36
2021-11-22 03:31:00,,0832.6,5.01,0.00,26.3,25.3,00.0,35.3,28.0,08.8,0000.0,0007.99,0003.89,0003.36
2021-11-22 03:32:00,,0832.6,5.00,0.00,26.3,25.3,00.0,35.3,28.0,08.9,0000.0,0008.75,0003.88,0003.36
2021-11-22 03:33:00,,0832.5,5.00,0.00,26.3,25.3,00.0,35.3,28.0,08.9,0000.0,0008.89,0003.89,0003.36
2021-11-22 03:34:00,,0832.5,5.00,0.00,26.3,25.3,00.0,35.3,28.0,08.8,0000.0,0008.85,0003.91,0003.35
2021-11-22 03:35:00,,0832.5,5.00,0.00,26.3,25.3,00.0,35.3,28.0,08.8,0000.0,0008.94,0003.92,0003.35
2021-11-22 03:36:00,,0832.5,5.00,0.00,26.3,25.3,00.0,35.3,28.0,08.8,0000.0,0008.88,0003.90,0003.34
2021-11-22 03:37:00,,0832.5,5.01,0.00,26.3,25.3,00.0,35.3,28.0,08.8,0000.0,0009.64,0003.90,0003.33
2021-11-22 03:38:00,,0832.5,4.99,0.00,26.3,25.3,00.0,35.3,28.0,08.8,0000.0,0009.89,0003.91,0003.33
2021-11-22 03:39:00,,0832.5,5.00,0.00,26.3,25.3,00.0,35.3,28.0,08.8,0000.0,0009.82,0003.88,0003.34
2021-11-22 03:40:00,,0832.5,5.01,0.00,26.2,25.3,00.0,35.3,28.0,08.8,0000.0,0010.05,0003.88,0003.34
2021-11-22 03:41:00,,0832.5,4.99,0.00,26.2,25.3,00.0,35.3,28.0,08.8,0000.0,0009.86,0003.88,0003.34
2021-11-22 03:42:00,,0832.6,5.01,0.00,26.2,25.3,00.0,35.3,27.9,08.8,0000.0,0010.34,0003.88,0003.34
2021-11-22 03:43:00,,0832.6,5.00,0.00,26.2,25.2,00.0,35.3,27.9,08.8,0000.0,0010.00,0003.88,0003.34
2021-11-22 03:44:00,,0832.5,4.99,0.00,26.2,25.2,00.0,35.3,27.9,08.8,0000.0,0010.18,0003.87,0003.34
2021-11-22 03:45:00,,0832.5,5.01,0.00,26.2,25.2,00.0,35.3,27.9,08.8,0000.0,0011.11,0003.83,0003.33
2021-11-22 03:46:00,,0832.5,5.00,0.00,26.2,25.2,00.0,35.3,27.9,08.9,0000.0,0011.11,0003.79,0003.32
2021-11-22 03:47:00,,0832.5,5.00,0.00,26.2,25.2,00.0,35.2,27.9,08.9,0000.0,0011.15,0003.77,0003.32
2021-11-22 03:48:00,,0832.5,4.99,0.00,26.2,25.2,00.0,35.2,27.9,08.9,0000.0,0011.15,0003.76,0003.32
2021-11-22 03:49:00,,0832.5,5.01,0.00,26.2,25.2,00.0,35.2,27.9,08.9,0000.0,0011.72,0003.74,0003.32
2021-11-22 03:50:00,,0832.5,4.99,0.00,26.2,25.2,00.0,35.2,27.9,08.9,0000.0,0011.52,0003.73,0003.32
2021-11-22 03:51:00,,0832.5,4.99,0.00,26.2,25.2,00.0,35.2,27.9,09.0,0000.0,0011.47,0003.72,0003.32
2021-11-22 03:52:00,,0832.5,5.01,0.00,26.2,25.2,00.0,35.2,27.9,09.0,0000.0,0011.44,0003.71,0003.33
2021-11-22 03:53:00,,0832.5,4.99,0.00,26.2,25.2,00.0,35.2,27.9,09.0,0000.0,0010.99,0003.70,0003.33
2021-11-22 03:54:00,,0832.5,4.99,0.00,26.2,25.2,00.0,35.2,27.9,09.0,0000.0,0011.02,0003.71,0003.34
2021-11-22 03:55:00,,0832.6,5.00,0.00,26.2,25.2,00.0,35.2,27.9,09.0,0000.0,0010.64,0003.72,0003.35
2021-11-22 03:56:00,,0832.5,5.00,0.00,26.2,25.2,00.0,35.2,27.9,09.0,0000.0,0010.09,0003.74,0003.37
2021-11-22 03:57:00,,0832.5,5.00,0.00,26.1,25.2,00.0,35.2,27.8,09.0,0000.0,0010.70,0003.77,0003.39
2021-11-22 03:58:00,,0832.5,4.99,0.00,26.1,25.2,00.0,35.2,27.9,09.0,0000.0,0010.75,0003.78,0003.41
2021-11-22 03:59:00,,0832.5,5.01,0.00,26.1,25.2,00.0,35.2,27.9,09.0,0000.0,0010.19,0003.78,0003.41
